Helicity
24 60 22 29 -13 -5 -3 62 3 63 87 20 -19 -15 -5 -4 6 -7 -18 -43 -33 -10 -14 -15 -26 -14 -15 -35 -29 5 38 67 9 -19 -13 -12 11 22 70 97 47 38 10
49 59 58 44 15 26 -8 24 47 47 28 23 -6 36 17 8 5 39 36 -4 -8 -17 -28 -48 -31 25 20 12 13 11 44 49 22 -19 -3 62 10 41 80 88 105 70 3
73 70 54 32 31 9 65 26 40 44 22 37 37 33 34 33 25 29 45 40 15 25 29 8 19 42 32 24 9 26 31 27 29 54 -11 11 38 62 102 92 184 108 51
69 75 49 36 31 35 36 49 62 52 49 45 37 44 50 54 46 48 54 61 49 30 42 20 18 30 41 35 47 48 46 44 55 71 46 40 49 26 73 109 99 74 60
88 83 101 77 45 34 54 68 54 50 55 56 44 34 77 74 54 63 63 59 48 55 48 43 37 51 69 62 73 60 59 67 71 54 47 71 58 65 86 2 69 42 101
209 190 177 134 89 73 61 78 80 98 109 93 78 80 112 94 184 124 131 128 108 81 58 52 54 44 62 60 71 76 80 82 82 70 54 69 76 54 54 70 72 106 96
151 170 200 217 136 128 109 118 110 123 118 104 104 99 98 103 158 126 119 98 108 106 97 81 68 70 82 70 71 92 82 100 103 99 86 88 84 85 61 72 86 94 115
147 128 125 142 167 166 129 129 108 108 118 107 127 127 105 148 145 184 160 122 110 118 147 155 119 102 112 87 100 70 95 194 172 147 155 118 100 105 94 103 86 90 100
61 41 57 64 118 144 125 125 127 128 133 138 118 119 108 161 222 231 169 137 159 203 217 167 124 114 133 125 81 122 185 162 77 96 116 111 94 152 167 112 146 122 106
84 148 162 172 188 141 134 137 140 149 165 196 241 233 274 224 255 191 152 126 148 189 193 178 214 172 191 242 214 254 267 238 155 97 105 107 164 152 189 187 185 179 165
81 87 129 130 137 122 111 117 100 133 139 143 154 185 155 155 147 147 134 127 109 159 148 170 158 188 254 260 289 287 287 245 176 124 120 128 141 191 221 192 212 243 228
167 145 133 114 104 90 84 75 75 90 93 86 89 113 118 136 141 167 158 128 68 98 119 111 120 160 154 144 138 153 201 222 241 249 228 214 146 150 152 157 106 96 77
117 133 136 152 140 111 63 53 59 52 58 59 66 80 72 56 59 120 141 126 126 99 76 59 53 75 75 83 80 81 93 97 107 134 129 104 82 128 43 81 64 91 76
100 115 122 132 120 135 128 129 105 119 97 59 54 44 32 36 41 41 47 52 75 81 60 83 64 74 74 86 87 101 133 174 154 160 97 86 113 100 77 77 84 80 49
92 98 116 126 124 135 135 125 117 127 116 122 119 118 86 70 54 56 65 57 55 63 99 109 119 121 116 125 122 131 129 140 126 119 165 151 178 149 152 136 125 143 115
93 91 84 100 84 66 85 123 170 132 139 144 145 90 83 73 34 36 56 39 38 48 66 74 74 78 96 96 112 99 87 100 47 102 100 88 115 127 130 121 116 123 159
71 65 62 73 69 81 80 77 71 104 121 131 104 84 44 31 18 41 46 41 35 44 46 52 47 45 36 36 44 46 60 67 65 52 59 67 79 92 97 87 96 83 85
67 61 58 50 53 48 29 47 50 27 45 52 35 28 45 35 20 24 46 55 51 3 -5 37 30 35 15 20 25 29 40 39 46 55 53 44 49 55 61 53 60 41 65
31 67 76 82 90 60 40 27 -10 34 60 57 46 32 11 -11 -19 -10 32 62 79 53 52 44 19 40 42 50 56 55 44 47 45 45 40 26 54 60 70 60 92 113 86
73 83 75 34 40 15 39 53 69 63 15 19 -0 29 34 45 29 3 -10 36 74 93 78 73 86 81 80 92 58 32 42 43 41 37 65 98 91 91 71 98 129 113 91
17 14 8 7 27 43 42 59 61 58 61 48 74 46 40 29 70 81 76 50 55 66 60 70 83 79 104 95 94 93 60 53 72 71 68 63 67 68 58 69 77 91 81
28 19 15 39 51 38 51 45 39 54 54 45 80 25 11 29 32 61 62 51 61 52 50 46 54 53 46 70 57 36 58 29 50 66 54 55 34 43 41 47 50 56 65
-31 15 61 20 46 56 52 49 40 45 33 41 60 52 4 -17 28 30 77 47 72 50 54 41 34 31 36 97 76 53 50 59 91 98 91 87 70 65 62 53 47 49 48
14 51 37 52 89 43 15 19 26 41 55 83 137 131 106 115 34 61 72 54 68 51 48 65 57 37 36 56 83 133 143 177 179 100 73 61 50 66 66 56 46 46 59
9 36 45 108 139 90 62 39 49 79 103 79 135 106 60 83 90 86 95 108 107 134 98 68 47 28 56 106 136 172 219 184 157 106 49 60 68 53 58 63 38 41 52
14 14 37 108 139 127 171 139 111 113 104 126 104 69 75 72 78 114 139 129 136 120 87 95 62 44 68 47 88 208 240 222 227 151 85 57 44 61 62 54 46 50 53
Wind_Speed
9 13 11 13 37 60 57 11 45 29 12 39 41 35 47 48 43 47 50 49 54 53 51 51 53 53 53 52 52 49 43 43 44 35 35 33 28 33 33 31 29 35 41
7 6 5 6 14 15 38 47 23 30 36 41 40 39 44 46 46 38 38 52 54 55 55 53 53 50 51 51 53 52 51 47 49 51 46 40 34 28 24 21 20 31 37
7 5 7 9 4 11 5 7 12 5 9 31 41 36 36 36 43 42 36 40 49 43 45 59 52 42 49 47 54 49 47 48 44 43 53 46 47 25 17 22 22 25 30
11 8 8 10 12 22 28 32 33 33 38 43 44 41 35 36 41 38 33 31 33 47 46 48 52 49 43 42 38 36 43 40 42 40 44 49 52 44 27 15 25 20 22
14 13 11 10 15 16 15 14 19 25 29 26 32 40 36 34 35 38 35 34 41 44 50 49 51 51 47 42 35 37 40 44 46 46 41 45 48 43 39 40 40 27 21
28 29 25 13 13 19 27 26 23 25 28 35 40 40 38 35 35 42 41 43 50 52 54 52 51 54 45 41 38 37 35 39 40 40 44 46 42 37 30 35 22 23 31
39 38 38 37 31 29 31 37 43 45 47 43 41 44 46 41 40 42 49 52 54 51 53 53 52 51 55 47 43 43 41 37 39 43 47 50 48 42 41 38 35 33 32
38 39 45 48 49 44 43 47 49 50 52 53 52 54 52 53 51 43 55 55 51 56 54 54 55 57 53 54 52 46 42 38 43 43 44 44 45 48 46 44 43 42 37
35 33 33 38 47 50 53 53 55 56 60 57 57 54 57 53 52 56 56 54 48 50 48 51 53 55 58 59 57 55 36 39 38 36 38 40 42 49 51 49 50 49 46
33 33 32 33 33 39 39 44 50 51 52 53 52 52 51 45 50 54 54 49 46 47 46 48 51 52 56 55 53 51 46 42 38 40 41 39 43 49 51 49 50 49 49
24 21 23 25 28 29 32 34 38 42 42 40 40 41 41 42 46 42 42 39 40 40 46 47 48 52 51 49 47 45 44 43 45 43 43 44 48 50 52 50 49 47 47
21 26 25 26 28 29 31 33 32 31 30 30 33 36 37 39 39 37 38 36 36 40 40 40 41 46 46 44 44 45 46 46 44 42 46 51 52 53 50 49 47 45 46
24 23 25 26 26 26 25 26 28 28 29 30 32 34 34 34 37 38 37 36 37 36 34 32 32 37 37 39 43 44 44 41 44 43 43 41 40 44 42 43 43 44 46
21 22 24 24 23 26 29 33 31 33 31 29 30 30 31 33 35 37 37 38 38 37 33 34 36 37 36 40 41 43 42 42 41 39 38 40 40 39 40 43 46 43 47
21 22 23 24 25 26 29 32 33 34 33 34 35 33 33 35 36 37 38 38 36 36 37 39 38 39 39 40 39 41 41 39 40 38 43 45 48 44 46 46 50 53 52
24 24 23 24 25 23 25 29 32 32 33 33 33 29 30 30 32 34 35 36 37 38 39 40 39 41 41 41 43 41 39 43 40 45 45 44 47 51 52 54 54 53 55
21 21 23 24 25 24 23 25 27 30 31 31 31 31 28 29 31 34 36 37 39 40 40 42 43 43 42 41 43 44 44 40 45 50 53 57 57 57 59 59 57 56 61
22 22 20 21 22 23 22 23 25 25 28 30 30 30 31 32 33 35 36 38 39 38 36 39 39 39 39 40 40 39 39 41 42 46 47 45 45 46 45 46 46 45 47
26 23 25 27 29 27 27 25 23 24 28 29 29 31 31 31 34 35 35 39 46 41 41 42 34 34 33 35 35 39 38 40 41 43 44 43 45 50 53 45 46 44 50
27 28 31 24 26 26 27 28 29 29 26 25 24 27 29 33 33 31 32 39 45 46 46 47 47 43 36 34 33 34 37 36 39 43 48 50 53 50 54 55 53 53 52
21 23 29 28 26 28 27 28 30 28 29 27 30 32 33 34 36 36 36 41 41 45 45 47 47 43 39 37 39 41 42 45 42 44 46 51 46 49 54 52 51 52 52
18 20 23 28 26 28 31 28 28 30 26 24 23 29 34 30 32 35 36 38 38 42 44 41 41 40 36 33 34 36 43 43 45 41 43 44 48 49 49 49 50 50 44
30 21 19 25 25 28 30 34 34 24 26 28 30 26 31 29 35 35 36 43 41 40 41 40 42 44 43 27 31 34 42 45 46 49 53 54 53 47 46 48 47 45 44
44 47 25 26 17 22 24 22 26 30 37 40 40 43 42 43 40 38 36 35 35 36 36 36 37 37 37 34 36 39 38 37 39 46 53 49 48 48 44 43 45 43 41
36 44 39 29 27 28 29 32 32 39 27 28 33 36 38 39 43 47 43 46 46 47 48 46 46 44 38 29 28 28 27 30 34 41 46 45 44 45 44 43 43 43 42
19 25 34 30 31 31 28 31 35 36 37 35 31 29 36 36 37 43 44 47 49 51 52 50 49 52 55 51 31 20 20 23 30 35 38 40 42 40 36 35 33 32 36
Wind_Direction
152 155 148 152 173 225 234 112 242 310 32 202 251 219 288 294 314 300 280 261 278 279 265 274 286 285 284 279 294 294 263 336 327 343 10 19 20 8 20 21 43 29 22
212 249 191 176 155 158 182 271 314 311 302 299 245 315 306 303 309 338 338 307 301 281 268 264 266 307 302 299 283 299 305 316 319 314 324 345 3 18 30 41 67 28 22
201 230 260 272 233 287 222 324 323 357 354 318 309 321 328 330 321 328 340 335 320 327 322 285 306 326 312 315 304 317 319 322 328 328 313 324 325 5 14 18 21 18 16
211 209 255 277 288 290 290 296 302 305 304 302 305 314 326 328 323 329 337 340 340 322 323 317 311 315 323 324 329 330 325 328 331 331 327 323 318 331 338 349 351 8 10
238 249 250 265 286 294 300 306 313 314 317 323 320 314 321 323 326 323 326 328 326 326 321 317 315 315 317 323 328 327 324 320 324 322 326 323 323 331 337 313 321 344 357
266 274 279 259 273 289 293 299 302 307 311 310 310 312 314 317 321 319 323 320 315 317 316 316 316 313 320 324 324 323 322 322 324 325 324 321 325 337 347 342 338 348 334
267 268 273 281 280 285 289 291 291 294 300 306 308 308 308 310 313 316 315 315 314 314 313 313 314 314 315 320 318 319 318 321 320 317 316 316 320 327 328 327 329 327 327
268 275 276 278 280 286 287 290 293 296 297 301 304 304 305 307 306 313 309 309 318 310 310 312 311 309 316 316 315 317 318 322 321 319 319 321 322 322 323 325 324 322 326
279 279 289 290 290 288 285 291 293 296 295 302 304 309 303 308 311 308 307 308 312 312 312 316 316 311 312 311 312 308 317 318 325 330 328 330 331 328 325 319 319 317 318
297 292 298 297 303 300 302 298 297 303 304 310 313 315 314 314 316 313 312 310 308 307 313 316 318 313 313 317 315 313 309 314 318 320 328 331 330 329 333 330 323 318 317
313 334 325 314 309 317 325 322 319 314 316 320 325 334 334 331 325 331 332 327 322 315 313 315 314 310 318 321 324 320 310 316 312 319 318 323 326 328 331 331 332 329 319
337 322 337 321 325 328 330 331 340 345 346 342 339 337 340 344 344 342 343 348 340 333 329 328 324 317 317 321 325 323 320 315 317 319 316 315 321 322 327 328 332 332 325
340 347 350 345 353 350 347 1 10 360 354 1 356 343 342 349 349 353 353 353 352 354 353 356 351 340 335 334 333 331 329 325 325 321 325 328 331 335 334 331 330 328 322
352 347 336 348 353 346 334 330 338 339 350 3 6 8 4 3 1 0 356 353 356 358 356 353 347 346 344 343 339 336 332 331 330 331 330 333 336 337 337 334 330 330 320
345 337 336 333 331 333 333 329 330 332 333 334 336 340 343 344 347 350 354 354 354 358 350 347 346 345 341 341 342 338 336 341 337 339 334 326 327 327 328 332 327 327 322
334 332 332 330 327 337 339 336 340 342 342 345 346 351 354 3 2 1 360 357 353 351 347 343 340 338 337 335 333 336 331 326 328 329 327 325 322 321 321 321 326 323 322
330 338 335 329 329 334 344 341 342 348 352 355 358 360 8 9 2 358 355 352 350 348 346 341 336 335 335 333 330 328 330 337 329 321 319 317 317 318 317 317 319 321 317
329 336 344 345 350 348 356 353 350 350 346 345 353 357 1 359 356 354 352 350 348 349 349 346 343 342 339 337 337 339 340 339 339 337 336 336 338 335 335 335 333 332 331
316 331 328 324 328 332 328 330 340 343 343 344 349 352 356 359 359 357 358 354 345 352 351 352 358 354 354 354 352 346 345 344 344 342 340 340 339 335 333 332 334 333 329
316 315 317 332 334 331 334 335 335 335 346 350 359 358 359 356 355 360 5 358 350 350 351 346 348 349 353 355 354 351 346 345 343 343 339 337 335 336 332 328 328 326 326
344 335 321 325 338 337 340 341 340 346 346 349 349 349 348 348 351 353 355 354 351 349 350 348 343 348 348 352 348 344 342 338 339 340 340 338 337 336 333 331 329 328 327
351 357 344 334 343 336 329 339 341 338 347 349 358 357 357 353 352 353 352 352 351 353 351 355 353 349 352 353 351 346 342 341 338 340 342 342 340 337 336 335 333 331 331
313 334 342 337 336 339 328 323 326 342 339 340 343 351 351 353 348 348 350 348 350 352 353 354 352 347 351 355 356 354 346 344 347 348 343 339 338 339 340 338 336 334 334
292 287 328 335 355 348 346 339 331 326 323 322 329 334 338 339 342 346 350 352 351 350 351 353 353 351 351 349 349 352 356 359 357 349 345 344 342 341 341 344 338 338 339
308 299 316 330 333 335 334 329 326 335 337 339 340 337 335 336 336 341 342 342 345 342 340 343 345 346 346 343 342 349 357 356 353 349 349 345 344 344 341 341 340 341 343
335 328 321 325 327 328 327 326 327 326 328 338 346 348 342 341 343 341 343 343 341 339 341 343 344 338 338 339 335 331 341 348 349 352 352 352 347 344 345 346 346 347 346